Location: Newark
(34.1333°N, 7.9667°W)
Time: 05:32:03
(UTC+00:00)

Transit 2A - Pass Details

Date: 19 June 2021
Orbit: 598 x 960 km, 66.7° (Epoch: 01 August)

Event Time Altitude Azimuth Distance (km) Brightness Sun altitude
Rises 01:16:33 0° 349° (NNW) 3,078 10.1 -31.5°
Reaches altitude 10° 01:19:18 10° 4° (N) 2,219 9.3 -31.4°
Maximum altitude 01:23:15 22° 56° (NE) 1,620 8.1 -31.2°
Enters shadow 01:25:59 16° 94° (E) 2,002 8.2 -31.1°
Drops below altitude 10° 01:27:29 10° 106° (ESE) 2,402 - -31.0°
Sets 01:30:34 0° 121° (ESE) 3,402 - -30.9°
